This is the latest recevied weather packets stored in our database for station/object SV9TNF-56. If no packets are shown the sender has not sent any weather packets the latest 10 day(s).
| Time | Temp. | Humidity | Pressure | Rain* | Wind** | Luminosity | Snow |
|---|---|---|---|---|---|---|---|
| 1788217981 | 24.44° C | 75% | 1010.8 hPa | 0 mm | 11.18 m/s, 283° | - | - |
| 1788217681 | 24.44° C | 74% | 1011.2 hPa | 0 mm | 9.83 m/s, 282° | - | - |
| 1788217380 | 24.44° C | 73% | 1010.8 hPa | 0 mm | 9.83 m/s, 333° | - | - |
| 1788217081 | 24.44° C | 71% | 1011.2 hPa | 0 mm | 12.52 m/s, 282° | - | - |
| 1788216780 | 24.44° C | 71% | 1011.2 hPa | 0 mm | 8.49 m/s, 295° | - | - |
| 1788216480 | 24.44° C | 69% | 1011.2 hPa | 0 mm | 16.54 m/s, 243° | - | - |
| 1788216180 | 24.44° C | 69% | 1011.2 hPa | 0 mm | 5.36 m/s, 312° | - | - |
| 1788215880 | 24.44° C | 69% | 1011.2 hPa | 0 mm | 8.05 m/s, 322° | - | - |
| 1788215580 | 24.44° C | 68% | 1011.5 hPa | 0 mm | 12.96 m/s, 352° | - | - |
| 1788215280 | 24.44° C | 65% | 1011.2 hPa | 0 mm | 12.52 m/s, 324° | - | - |
| 1788214980 | 24.44° C | 63% | 1011.5 hPa | 0 mm | 12.52 m/s, 294° | - | - |
| 1788214680 | 24.44° C | 63% | 1011.5 hPa | 0 mm | 16.99 m/s, 318° | - | - |
| 1788214380 | 24.44° C | 65% | 1011.5 hPa | 0 mm | 9.83 m/s, 306° | - | - |
| 1788214080 | 24.44° C | 67% | 1011.5 hPa | 0 mm | 9.83 m/s, 277° | - | - |
| 1788213779 | 24.44° C | 66% | 1011.5 hPa | 0 mm | 4.92 m/s, 342° | - | - |
| 1788213479 | 24.44° C | 65% | 1011.5 hPa | 0 mm | 4.47 m/s, 240° | - | - |
| 1788213179 | 25° C | 64% | 1011.9 hPa | 0 mm | 3.58 m/s, 284° | - | - |
| 1788212879 | 25° C | 63% | 1011.9 hPa | 0 mm | 8.49 m/s, 6° | - | - |
| 1788212579 | 25° C | 62% | 1011.9 hPa | 0 mm | 13.86 m/s, 308° | - | - |
| 1788212279 | 25° C | 60% | 1011.5 hPa | 0 mm | 13.41 m/s, 246° | - | - |
| 1788211979 | 25° C | 60% | 1011.5 hPa | 0 mm | 12.52 m/s, 240° | - | - |
| 1788211679 | 25° C | 57% | 1011.5 hPa | 0 mm | 8.49 m/s, 137° | - | - |
| 1788211379 | 25.56° C | 55% | 1011.5 hPa | 0 mm | 7.6 m/s, 142° | - | - |
| 1788211078 | 25.56° C | 55% | 1011.2 hPa | 0 mm | 13.41 m/s, 167° | - | - |
| 1788210778 | 25.56° C | 55% | 1011.5 hPa | 0 mm | 16.09 m/s, 213° | - | - |
* Rain latest hour (hover to see other rain measurements)
** Current wind speed in m/s (hover to see current wind gust speed)